Wind_Speed
10 10 10 10 11 11 11 10 10 9 8 8 9 10 10 10 10 10 11 11 12 12 11 11 11 10 10 10 10 10 10 10 10 10 10 11 11 11 11 12 12 13 14 15
12 12 12 11 11 11 11 11 11 10 9 8 9 10 10 10 10 10 11 11 11 12 12 12 12 12 11 11 10 10 10 11 12 12 12 12 12 12 13 14 14 15 16 17
14 14 14 12 11 11 11 11 12 11 9 9 9 10 10 10 10 10 10 11 12 12 12 12 12 12 12 11 11 11 11 11 11 12 13 13 13 14 14 15 16 17 18 19
15 15 16 13 13 12 12 11 12 10 10 10 10 10 10 11 10 10 11 11 12 12 12 11 11 12 12 12 12 11 11 12 12 13 13 14 14 15 16 17 18 19 20 20
16 16 15 15 14 14 13 12 12 12 11 11 10 10 11 11 11 11 12 12 12 12 12 11 11 11 12 12 12 12 12 13 13 14 14 15 15 16 17 18 19 21 21 22
17 17 16 14 15 15 15 14 12 12 12 12 11 11 11 11 12 12 12 12 12 13 13 13 12 12 12 13 12 13 13 14 14 14 15 16 16 17 18 19 20 21 22 23
18 18 16 15 15 16 16 14 14 13 12 12 12 12 12 12 13 12 13 13 13 14 14 14 14 14 13 13 13 14 15 15 15 15 16 16 17 18 20 21 22 22 23 24
19 19 17 16 16 16 15 15 14 14 13 13 13 13 13 14 13 13 13 14 14 14 14 15 15 14 14 14 15 15 16 16 17 17 18 18 19 20 21 22 23 24 25 26
20 19 17 17 17 15 15 14 14 14 14 13 13 14 14 15 15 15 15 15 15 15 15 16 15 15 16 16 16 17 17 18 19 19 20 21 21 22 23 24 25 26 28 29
20 19 18 17 17 16 15 15 15 15 15 15 15 15 15 15 16 15 15 15 16 16 16 16 16 17 16 17 17 18 19 20 20 21 21 22 23 25 26 27 29 30 31 32
21 20 20 19 18 18 17 16 16 16 16 16 16 16 16 16 16 16 16 16 16 16 16 16 16 17 17 17 18 19 19 20 21 22 23 25 26 28 29 31 32 33 34 36
22 22 21 20 19 19 18 18 18 18 18 18 17 17 16 17 17 17 17 17 17 16 16 17 17 18 18 19 19 20 21 23 24 25 26 28 30 31 32 33 34 36 37 38
22 22 22 21 21 20 20 20 20 20 20 19 18 18 17 17 17 17 17 17 17 17 18 18 19 20 20 21 22 23 24 25 26 27 29 31 32 34 35 36 36 37 39 39
24 23 23 22 22 21 21 21 21 21 21 20 19 19 19 18 19 19 19 19 19 19 19 20 21 22 23 24 25 26 27 28 29 31 32 34 35 36 37 38 38 39 40 41
25 24 24 23 23 23 22 22 21 21 21 21 21 20 20 20 20 20 20 21 21 21 22 22 23 24 25 26 27 28 30 31 32 34 35 36 37 37 38 39 40 41 41 42
26 26 25 25 24 24 23 23 23 22 23 22 22 22 22 22 22 23 22 22 23 23 24 25 26 27 28 29 30 31 32 34 35 36 37 37 38 38 39 40 41 42 43 43
27 27 26 26 25 25 25 25 25 25 25 25 25 24 25 25 25 25 25 25 25 25 26 28 28 29 30 32 32 33 34 35 36 37 38 38 39 40 41 41 42 43 43 44
27 27 28 28 27 28 27 27 27 27 26 27 27 27 27 27 27 27 27 27 28 28 29 30 31 32 33 34 35 35 36 37 37 38 39 39 40 41 42 42 43 43 44 45
28 28 28 28 28 29 29 28 28 28 28 28 28 28 28 28 29 29 29 30 31 31 32 33 34 34 35 35 36 37 37 38 38 39 39 40 41 41 42 43 44 45 46 46
29 29 28 28 28 29 29 29 29 30 30 30 30 30 30 30 30 31 31 32 33 34 34 35 36 36 37 37 38 38 38 39 39 40 40 41 41 42 43 44 46 46 47 47
30 30 29 29 28 28 29 29 30 30 30 31 31 31 31 32 32 32 33 34 35 35 36 36 37 37 38 39 39 39 40 40 40 41 42 42 43 43 45 46 47 47 47 48
30 30 30 30 30 30 30 30 30 31 31 31 31 32 32 33 33 34 35 35 36 36 37 37 38 38 39 39 40 40 41 41 42 42 43 44 44 45 46 47 47 47 47 48
30 30 30 30 30 30 30 30 31 31 31 31 32 32 33 33 34 34 35 36 36 37 37 37 38 38 39 40 40 41 41 42 42 43 44 44 45 46 47 47 47 47 47 47
30 30 30 31 31 31 31 31 31 31 31 32 32 32 33 34 34 35 35 36 36 36 37 38 38 39 39 40 41 41 42 42 42 43 44 45 46 46 46 46 47 47 47 48
30 30 31 31 32 32 32 32 32 32 32 32 33 34 34 34 34 34 35 36 37 37 38 38 39 39 40 40 41 41 42 42 43 43 44 45 45 46 46 46 46 47 47 48
30 30 31 31 32 32 32 32 32 32 33 33 34 34 34 34 34 35 35 36 37 37 38 39 39 39 39 40 41 42 42 43 43 44 45 45 45 45 45 45 45 46 46 46
30 30 31 31 31 32 32 32 32 32 32 33 33 33 34 34 35 35 36 36 37 37 38 38 38 39 40 41 42 42 43 43 43 44 44 44 44 44 44 45 45 45 46 46
Wind_Direction
236 236 238 235 236 239 243 247 249 247 243 240 238 235 230 226 222 217 219 222 226 227 230 231 233 239 246 249 247 248 250 253 258 260 262 267 272 275 277 280 285 291 295 298
240 240 239 236 236 242 244 247 251 254 254 246 236 234 230 228 226 224 224 226 229 230 233 235 235 241 247 249 247 251 254 257 259 261 265 270 274 277 278 280 284 290 295 297
240 240 241 237 237 240 243 248 251 256 259 252 243 237 234 231 233 231 229 231 232 232 233 237 240 243 246 248 248 253 258 263 266 268 269 271 276 279 281 282 286 291 294 296
241 241 243 238 240 242 243 246 250 252 251 247 242 236 233 230 230 231 234 237 235 236 237 241 244 246 249 249 250 256 262 268 271 272 271 272 277 280 284 286 289 291 294 295
243 245 244 240 242 246 247 247 249 250 248 246 245 241 237 234 235 236 234 238 239 239 241 244 247 248 249 249 253 259 265 271 274 272 272 275 279 283 286 288 290 293 295 295
246 246 245 242 242 243 245 247 245 245 242 242 243 240 240 241 241 239 237 240 241 242 243 245 247 251 253 252 255 261 267 271 274 274 275 278 282 286 289 292 294 295 296 297
247 247 247 245 244 243 244 248 247 246 243 243 240 243 242 241 243 243 242 242 244 246 245 246 250 253 256 257 260 264 267 272 275 278 279 281 285 289 292 293 295 296 297 298
244 246 247 243 241 241 242 243 245 246 244 244 242 245 245 242 242 244 246 245 245 247 247 249 252 253 256 260 264 267 270 275 278 280 282 283 287 290 292 294 295 296 298 299
245 246 244 241 242 242 241 241 242 244 244 244 245 245 246 245 244 244 244 245 246 244 246 248 251 254 257 261 265 269 273 277 279 281 283 286 290 292 293 294 295 296 298 299
245 245 245 243 242 241 240 242 241 241 244 247 247 245 245 244 244 245 248 249 251 248 247 250 253 256 259 262 268 272 275 278 280 282 284 286 290 292 294 295 296 297 298 298
245 246 247 246 245 244 242 243 243 244 247 249 248 246 245 244 246 248 250 251 253 251 252 255 256 258 262 267 270 272 276 279 281 284 286 289 292 293 295 296 297 298 299 299
244 245 248 248 247 245 247 248 247 248 248 249 249 247 246 247 249 251 253 253 253 254 256 257 259 261 266 270 273 275 278 281 283 285 288 291 293 294 295 297 298 298 298 298
243 245 246 246 245 245 246 249 249 249 250 248 248 248 249 249 249 250 254 255 255 257 257 258 260 264 269 272 275 278 281 283 285 289 291 293 294 295 296 297 297 297 297 297
244 245 245 245 245 245 246 248 248 249 249 248 247 247 249 250 250 252 254 256 257 259 261 262 264 267 271 274 278 280 283 285 287 290 292 293 294 295 296 297 297 298 298 298
245 245 244 244 245 244 245 246 246 247 248 247 247 249 250 252 253 255 256 258 260 262 263 265 268 272 275 278 280 283 284 286 288 290 292 293 294 295 296 297 297 298 298 299
244 244 245 244 245 245 245 246 247 248 248 248 249 250 252 254 256 258 259 261 263 265 267 269 272 276 278 280 282 284 286 288 289 291 292 293 294 296 296 297 297 298 299 299
243 244 246 246 246 247 248 248 248 247 248 250 251 252 253 256 258 260 261 263 265 267 270 273 275 277 279 281 283 285 287 289 291 292 292 294 295 296 297 298 298 299 299 299
245 245 246 247 247 247 248 249 248 248 250 252 252 254 255 258 261 263 264 266 267 270 272 275 277 279 280 282 284 286 288 290 291 292 293 294 295 296 297 298 299 299 299 300
245 247 248 249 249 248 249 249 250 250 251 252 254 256 258 259 261 264 266 268 270 272 274 276 278 279 281 283 284 286 287 289 290 292 293 294 295 296 297 298 298 299 300 301
246 247 249 250 251 250 250 251 251 252 253 254 256 257 259 261 263 265 268 270 272 274 276 277 278 280 281 283 284 285 287 288 290 292 293 294 295 296 296 297 299 300 300 301
247 249 250 251 251 252 252 253 254 254 255 257 259 260 262 264 265 268 270 272 273 275 276 278 279 280 282 283 284 285 287 289 291 292 294 295 295 296 297 298 299 300 301 301
247 249 251 253 254 254 254 255 256 257 258 260 261 263 265 266 267 269 271 272 274 275 276 278 279 281 282 283 284 286 287 289 291 292 294 295 296 297 298 299 299 300 301 302
248 250 252 254 255 256 257 257 257 258 259 260 262 264 266 267 269 270 272 273 274 276 277 279 280 281 283 284 285 287 288 290 292 293 294 295 296 297 298 299 299 300 301 302
251 252 253 254 256 257 258 258 258 258 260 261 263 264 267 268 270 273 274 275 276 277 278 279 281 282 283 284 285 287 289 291 292 293 294 295 296 297 298 298 300 301 301 302
251 252 253 254 256 258 258 258 259 259 261 263 264 266 268 270 272 274 275 276 277 278 278 279 281 283 284 285 286 288 289 291 292 294 295 296 297 297 298 298 299 300 301 302
251 252 254 255 257 258 258 259 260 262 263 264 265 267 269 271 273 275 276 277 278 279 279 280 281 283 284 286 287 289 290 292 293 294 295 296 297 298 298 299 299 301 302 303
251 252 253 255 256 257 258 259 261 262 263 265 267 268 269 271 273 275 276 278 278 279 279 280 281 283 284 286 288 290 291 292 293 294 296 297 298 299 299 300 301 302 303 304
Height
5831 5832 5832 5833 5833 5834 5835 5836 5837 5838 5839 5840 5841 5842 5843 5843 5844 5845 5846 5848 5850 5851 5852 5854 5855 5855 5856 5856 5857 5857 5857 5857 5857 5857 5857 5857 5857 5857 5856 5856 5856 5855 5854 5853
5828 5828 5829 5829 5830 5831 5832 5833 5834 5835 5836 5837 5838 5839 5840 5841 5841 5843 5844 5845 5847 5848 5850 5851 5852 5853 5853 5853 5854 5854 5854 5854 5854 5854 5853 5853 5853 5853 5852 5852 5851 5851 5850 5848
5824 5825 5825 5827 5828 5829 5829 5830 5831 5832 5834 5834 5834 5835 5836 5837 5839 5840 5841 5843 5844 5845 5847 5848 5848 5849 5850 5850 5850 5850 5850 5850 5849 5849 5849 5849 5849 5849 5848 5848 5847 5846 5845 5843
5820 5822 5822 5826 5825 5826 5826 5827 5828 5829 5830 5831 5831 5832 5833 5835 5836 5837 5839 5840 5841 5842 5843 5844 5845 5846 5846 5847 5847 5847 5847 5846 5846 5845 5845 5845 5845 5844 5844 5843 5842 5841 5839 5838
5816 5817 5818 5821 5822 5822 5823 5824 5825 5826 5827 5828 5828 5829 5830 5832 5833 5834 5835 5837 5838 5839 5840 5841 5842 5842 5843 5843 5843 5843 5843 5843 5842 5841 5841 5841 5840 5840 5839 5838 5837 5836 5834 5832
5812 5813 5815 5818 5818 5818 5820 5820 5822 5822 5823 5824 5825 5827 5828 5829 5830 5831 5832 5833 5834 5835 5836 5837 5838 5839 5839 5840 5840 5840 5840 5839 5838 5838 5837 5836 5836 5835 5834 5833 5831 5830 5828 5826
5807 5808 5810 5813 5814 5815 5817 5818 5818 5819 5820 5821 5822 5824 5825 5825 5826 5827 5828 5830 5831 5832 5833 5834 5834 5835 5835 5836 5836 5836 5836 5835 5834 5834 5833 5832 5831 5830 5829 5827 5826 5824 5821 5819
5803 5804 5808 5808 5809 5811 5812 5813 5814 5815 5816 5817 5819 5819 5820 5821 5823 5824 5825 5826 5827 5827 5828 5829 5830 5830 5831 5831 5832 5832 5831 5831 5830 5829 5828 5827 5826 5825 5823 5821 5819 5817 5815 5813
5799 5801 5802 5803 5804 5806 5807 5808 5810 5811 5812 5813 5814 5815 5816 5817 5819 5820 5821 5821 5822 5823 5823 5824 5825 5826 5826 5827 5827 5827 5826 5826 5825 5824 5823 5821 5820 5819 5817 5815 5812 5810 5808 5805
5793 5795 5796 5798 5799 5801 5802 5804 5805 5806 5807 5809 5810 5811 5812 5813 5814 5815 5816 5817 5817 5818 5819 5820 5820 5821 5821 5821 5821 5821 5821 5820 5819 5818 5817 5816 5814 5812 5810 5807 5805 5802 5799 5796
5787 5789 5790 5792 5794 5796 5798 5799 5800 5802 5803 5804 5805 5806 5807 5808 5809 5810 5811 5812 5813 5813 5814 5815 5815 5816 5816 5816 5816 5816 5815 5814 5813 5812 5811 5809 5807 5804 5802 5799 5796 5793 5790 5787
5782 5784 5785 5787 5789 5791 5792 5794 5795 5796 5797 5798 5800 5801 5802 5803 5804 5805 5806 5807 5808 5808 5809 5810 5810 5810 5811 5810 5810 5809 5809 5808 5807 5805 5803 5801 5799 5796 5793 5790 5786 5783 5779 5776
5776 5777 5779 5781 5783 5785 5786 5788 5789 5790 5792 5793 5794 5795 5796 5798 5799 5800 5801 5801 5802 5803 5804 5804 5805 5805 5804 5804 5803 5803 5802 5800 5799 5797 5795 5793 5790 5787 5784 5781 5777 5773 5769 5765
5769 5771 5773 5775 5776 5778 5780 5781 5783 5784 5786 5787 5788 5789 5791 5792 5793 5794 5795 5796 5796 5797 5798 5798 5798 5798 5798 5797 5796 5795 5794 5792 5790 5788 5786 5783 5780 5777 5774 5770 5766 5762 5758 5753
5762 5764 5766 5768 5770 5772 5773 5775 5777 5778 5780 5781 5782 5784 5785 5786 5787 5788 5789 5789 5790 5791 5791 5791 5791 5791 5790 5790 5788 5787 5785 5783 5781 5779 5776 5773 5769 5766 5762 5758 5755 5751 5746 5742
5755 5757 5759 5761 5763 5765 5767 5769 5770 5772 5773 5774 5776 5777 5779 5780 5780 5781 5782 5783 5783 5784 5784 5784 5784 5783 5782 5781 5779 5778 5776 5773 5771 5768 5765 5762 5758 5755 5751 5747 5743 5739 5734 5730
5747 5750 5752 5754 5756 5758 5759 5761 5763 5764 5766 5767 5769 5770 5771 5772 5773 5774 5775 5775 5776 5776 5776 5776 5775 5774 5773 5771 5770 5768 5765 5763 5760 5757 5754 5750 5747 5743 5739 5735 5731 5727 5722 5717
5740 5742 5744 5746 5748 5750 5751 5753 5755 5756 5758 5759 5761 5762 5763 5764 5765 5766 5766 5767 5767 5767 5767 5766 5765 5764 5763 5761 5759 5757 5755 5752 5749 5746 5742 5739 5735 5731 5727 5723 5719 5714 5710 5705
5731 5733 5735 5737 5739 5741 5743 5744 5746 5748 5749 5751 5752 5754 5755 5756 5756 5757 5757 5757 5757 5757 5757 5756 5755 5753 5752 5750 5748 5746 5743 5741 5737 5734 5731 5727 5723 5719 5715 5711 5706 5702 5697 5692
5722 5725 5726 5728 5730 5732 5734 5735 5737 5739 5740 5742 5743 5744 5745 5746 5747 5747 5747 5747 5747 5746 5746 5745 5743 5742 5740 5738 5736 5734 5731 5729 5726 5722 5719 5715 5711 5707 5703 5698 5694 5689 5684 5678
5714 5716 5718 5720 5722 5723 5725 5726 5728 5729 5731 5732 5733 5734 5735 5736 5736 5736 5736 5736 5736 5735 5734 5733 5732 5730 5728 5726 5724 5722 5719 5717 5714 5710 5707 5703 5699 5695 5690 5686 5681 5676 5670 5665
5705 5707 5709 5711 5712 5714 5716 5717 5718 5720 5721 5722 5723 5724 5724 5725 5725 5725 5725 5725 5724 5723 5722 5721 5720 5718 5716 5714 5712 5710 5707 5704 5701 5698 5694 5690 5686 5682 5677 5672 5667 5662 5657 5652
5696 5698 5700 5701 5703 5704 5706 5707 5708 5710 5711 5712 5713 5713 5714 5714 5714 5714 5714 5713 5712 5711 5710 5709 5708 5706 5704 5702 5700 5697 5695 5692 5688 5685 5681 5677 5673 5669 5664 5659 5654 5649 5644 5638
5686 5688 5690 5692 5693 5695 5696 5697 5698 5700 5701 5701 5702 5702 5703 5703 5703 5702 5702 5701 5700 5700 5698 5697 5695 5694 5692 5690 5687 5685 5682 5679 5675 5672 5668 5664 5660 5655 5651 5646 5641 5636 5631 5625
5676 5678 5680 5681 5683 5684 5686 5687 5688 5689 5690 5690 5691 5691 5691 5691 5691 5691 5690 5689 5688 5687 5686 5685 5683 5682 5679 5677 5675 5672 5669 5666 5663 5659 5655 5651 5646 5642 5637 5633 5628 5623 5617 5612
5666 5668 5669 5671 5672 5673 5675 5676 5677 5678 5679 5679 5680 5680 5680 5680 5680 5679 5679 5678 5677 5675 5674 5672 5671 5669 5667 5664 5662 5659 5656 5653 5650 5646 5642 5638 5634 5629 5624 5619 5614 5610 5604 5599
5656 5658 5659 5660 5662 5663 5664 5665 5666 5667 5668 5668 5668 5669 5669 5668 5668 5667 5666 5665 5664 5663 5662 5660 5658 5656 5654 5651 5649 5646 5643 5640 5637 5633 5629 5625 5621 5617 5612 5607 5602 5597 5592 5587